Hourly Data Report for September 11, 2010

IQALUIT CLIMATE
NUNAVUT

63°44'50.000" N
68°32'40.000" W
33.50 m
2402592
71321
XFB

Download Data

Hourly Data (September 2010)
Hourly Data Report for September 11, 2010
TIME
LST
Temp Definition
°C
Dew Point Definition
°C
Rel Hum Definition
%
Precip. Amount Definition
mm

Wind Dir Definition
10's deg

Wind Spd Definition
km/h
Visibility Definition
km
Stn Press Definition
kPa
Hmdx Definition


Wind Chill Definition


Weather Definition


00:00 0.4 -0.3 95   33 6   101.91     LegendNANA
01:00 -0.7 -1.2 96   33 9   101.90   -4 LegendNANA
02:00 0.0 -0.6 96   32 11   101.89   -4 LegendNANA
03:00 -1.8 -2.3 96   34 9   101.88   -5 LegendNANA
04:00 -0.7 -1.1 97   32 6   101.87   -3 LegendNANA
05:00 -1.1 -1.4 98   35 6   101.86   -3 LegendNANA
06:00 0.0 -0.5 96   32 6   101.86   -2 LegendNANA
07:00 1.4 0.6 94   33 7   101.83     LegendNANA
08:00 2.9 0.4 84   33 19   101.80     LegendNANA
09:00 4.4 0.1 74   32 20   101.76     LegendNANA
10:00 5.2 -0.7 66   33 26   101.70     LegendNANA
11:00 6.1 0.1 65   33 20   101.63     LegendNANA
12:00 6.5 -0.6 60   33 22   101.59     LegendNANA
13:00 7.6 -0.5 56   33 22   101.55     LegendNANA
14:00 8.5 -1.3 50   32 20   101.51     LegendNANA
15:00 8.9 -1.8 47   33 22   101.47     LegendNANA
16:00 8.8 -2.0 47   33 20   101.45     LegendNANA
17:00 7.9 -2.1 49   33 19   101.40     LegendNANA
18:00 6.1 -2.0 56   34 15   101.38     LegendNANA
19:00 3.8 -1.9 66   32 9   101.40     LegendNANA
20:00 4.0 -2.2 64   32 9   101.40     LegendNANA
21:00 2.2 -1.6 76   27 7   101.40     LegendNANA
22:00 -0.4 -2.5 86   36 6   101.38   -2 LegendNANA
23:00 0.8 -1.7 83   35 6   101.36     LegendNANA

Notes on Data Quality.

Legend

  • E = Estimated
  • M = Missing
  • NA = Not Available*
  • [empty] = Indicates an unobserved value
Date modified: